Hourly Data Report for April 28, 2020

NANAIMO A
BRITISH COLUMBIA
Current Station Operator: NAVCAN

49°03'16.000" N
123°52'12.000" W
28.00 m
1025365
YCD

Download Data

Hourly Data (April 2020)
Hourly Data Report for April 28, 2020
TIME
LST
Temp Definition
°C
Dew Point Definition
°C
Rel Hum Definition
%
Precip. Amount Definition
mm

Wind Dir Definition
10's deg

Wind Spd Definition
km/h
Visibility Definition
km
Stn Press Definition
kPa
Hmdx Definition


Wind Chill Definition


Weather Definition


00:00 7.2 1.3 66 LegendMM 24 8 LegendMM 101.99     LegendNANA
01:00 6.0 1.6 73 LegendMM 24 4 LegendMM 101.99     LegendNANA
02:00 5.2 1.5 77 LegendMM 22 5 LegendMM 102.02     LegendNANA
03:00 4.8 1.1 77 LegendMM 17 3 LegendMM 102.02     LegendNANA
04:00 4.5 1.7 82 LegendMM 24 6 LegendMM 102.07     LegendNANA
05:00 4.8 2.1 83 LegendMM 31 2 LegendMM 102.07     LegendNANA
06:00 5.8 2.6 80 LegendMM 26 8 LegendMM 102.07     LegendNANA
07:00 7.1 3.5 78 LegendMM 1 3 LegendMM 102.06     LegendNANA
08:00 8.5 3.5 71 LegendMM 3 1 LegendMM 102.11     LegendNANA
09:00 9.6 4.2 69 LegendMM 8 5 LegendMM 102.15     LegendNANA
10:00 10.0 4.8 70 LegendMM 16 3 LegendMM 102.15     LegendNANA
11:00 11.1 5.4 68 LegendMM 9 8 LegendMM 102.16     LegendNANA
12:00 11.5 7.3 75 LegendMM 12 6 LegendMM 102.17     LegendNANA
13:00 11.4 7.5 77 LegendMM 15 8 LegendMM 102.18     LegendNANA
14:00 11.6 7.3 75 LegendMM 12 8 LegendMM 102.20     LegendNANA
15:00 11.2 8.1 81 LegendMM 11 7 LegendMM 102.25     LegendNANA
16:00 11.0 9.2 89 LegendMM 13 12 LegendMM 102.10     LegendNANA
17:00 10.8 8.8 88 LegendMM 15 10 LegendMM 102.15     LegendNANA
18:00 10.7 8.1 84 LegendMM 4 6 LegendMM 102.13     LegendNANA
19:00 10.6 8.6 87 LegendMM 30 3 LegendMM 102.08     LegendNANA
20:00 10.0 8.5 90 LegendMM 1 3 LegendMM 102.10     LegendNANA
21:00 8.5 8.3 98 LegendMM 23 2 LegendMM 102.09     LegendNANA
22:00 7.6 7.5 99 LegendMM 18 4 LegendMM 102.04     LegendNANA
23:00 6.8 6.7 99 LegendMM 14 2 LegendMM 101.99     LegendNANA

Notes on Data Quality.

Legend

  • E = Estimated
  • M = Missing
  • NA = Not Available*
  • [empty] = Indicates an unobserved value
Date modified: